Flag for Egypt Weather past 2 weeks in Port Said, Egypt

Now
84 °F

Sunny.


Feels Like: 88 °F
Forecast: 76 / 86 °F
Wind: 7 mph from North

Location: Port Said Airport

Current Time: Aug 20, 2014 at 6:00:09 PM

Latest Report: Aug 20, 2014 at 5:00 PM


Visibility: 10 mi

Pressure: 29.89 "Hg

Humidity: 62%

Dew point: 70 °F

Location of Port SaidLocation

Historic Weather in Port Said — Graph

°F

Port Said temperature yesterday

Maximum temperature yesterday: 88 °F (at 1:00 PM)
Minimum temperature yesterday: 79 °F (at 7:00 AM)
Average temperature yesterday: 83 °F

Past Weeks' High & Low Weather Summary

 TemperatureHumidityPressure
High93 °F (Aug 14, 2:00 PM)94% (Aug 7, 5:00 AM)29.95 "Hg (Aug 7, 5:00 AM)
Low77 °F (Aug 10, 7:00 AM)46% (Aug 5, 6:00 PM)29.62 "Hg (Aug 17, 8:00 PM)
Average83 °F73%29.78 "Hg
* Reported Aug 5 4:00 PM — Aug 20 4:00 PM, Port Said, Weather by CustomWeather, © 2014

Note: Actual official high and low records may vary slightly from our data, if they occured in-between our weather recording intervals... More about our weather records

Advertising

Port Said weather history for previous 24 hours

 ConditionsComfort  
Time TempWeatherWind HumidityBarometerVisibility
4:00 PM
Aug 20
84 °FSunny.7 mph62%29.89 "Hg10 mi
3:00 PM86 °FSunny.6 mph59%29.89 "Hg10 mi
2:00 PM86 °FSunny.6 mph59%29.92 "Hg10 mi
1:00 PM86 °FSunny.6 mph59%29.92 "Hg10 mi
12:00 PM84 °FSunny.6 mph58%29.92 "Hg10 mi
11:00 AM84 °FSunny.3 mph62%29.95 "Hg10 mi
10:00 AM82 °FSunny.2 mph66%29.95 "Hg10 mi
9:00 AM81 °FSunny.6 mph70%29.95 "Hg10 mi
8:00 AM79 °FSunny.8 mph74%29.92 "Hg10 mi
7:00 AM77 °FPassing clouds.7 mph79%29.92 "HgN/A
6:00 AM77 °FClear.7 mph79%29.89 "Hg10 mi
5:00 AM79 °FClear.5 mph74%29.89 "Hg10 mi
4:00 AM79 °FClear.5 mph70%29.89 "Hg10 mi
3:00 AM79 °FClear.6 mph70%29.89 "Hg10 mi
2:00 AM81 °FClear.10 mph66%29.89 "Hg10 mi
1:00 AM81 °FClear.10 mph66%29.89 "Hg10 mi
12:00 AM81 °FClear.12 mph70%29.89 "Hg10 mi
11:00 PM
Aug 19
81 °FClear.9 mph74%29.89 "Hg10 mi
10:00 PM82 °FClear.14 mph66%29.89 "Hg10 mi
9:00 PM82 °FClear.12 mph66%29.89 "Hg10 mi
8:00 PM82 °FClear.13 mph66%29.86 "Hg10 mi
7:00 PM82 °FSunny.16 mph66%29.86 "Hg10 mi
6:00 PM84 °FSunny.14 mph62%29.86 "Hg10 mi
Weather by CustomWeather, © 2014

See weather overviewHow to use our weather pages